Paso Robles, CA

7:52 PM PST on December 09, 2016 (GMT -0800)
Paso Robles Municipal

Weather History for KPRB - December, 2013

Change the Weather History Date:

Tuesday, December 31, 2013

  Actual Average Record
Temperature  
Mean Temperature 49 °F 46 °F  
Max Temperature 70 °F 59 °F 75 °F (2011)
Min Temperature 28 °F 34 °F 18 °F (1969)
Degree Days  
Heating Degree Days 16 19  
Month to date heating degree days 583 576  
Since 1 July heating degree days 1035 1124  
Cooling Degree Days 0 0  
Month to date cooling degree days 0 0  
Year to date cooling degree days 1173 927  
Moisture  
Dew Point 16 °F    
Average Humidity 30    
Maximum Humidity 47    
Minimum Humidity 12    
Precipitation  
Precipitation 0.00 in 0.08 in 0.70 in (2004)
Month to date precipitation 0.17 2.01  
Year to date precipitation 1.92 12.78  
Since 1 July precipitation 0.46  
Sea Level Pressure  
Sea Level Pressure 30.19 in    
Wind  
Wind Speed 2 mph (ENE)    
Max Wind Speed 12 mph    
Max Gust Speed 20 mph    
Visibility 10 miles    
Events      
T = Trace of Precipitation, MM = Missing Value Source: NWS Daily Summary

Daily Weather History Graph

Daily Weather History Graph

Search for Another Location

Airport or City:

Trip Planner

Search our weather history database for the weather conditions in past years. The results will help you decide how hot, cold, wet, or windy it might be!

Date:

Astronomy

Dec. 31, 2013 Rise Set
Actual Time 7:12 AM PST 4:59 PM PST
Civil Twilight 6:43 AM PST 5:27 PM PST
Nautical Twilight 6:11 AM PST 5:59 PM PST
Astronomical Twilight 5:40 AM PST 6:30 PM PST
Moon 6:11 AM PST (12/31) 4:39 PM PST (12/31)
Length of Visible Light 10h 44m
Length of Day
9h 47m
Waning Crescent, 1% of the Moon is Illuminated
Dec 31
Waning Crescent
Jan 1
New
Jan 7
First Quarter
Jan 15
Full
Jan 23
Last Quarter

Hourly Weather History & Observations

Time (PST) Temp. Windchill Dew Point Humidity Pressure Visibility Wind Dir Wind Speed Gust Speed Precip Events Conditions
12:53 AM 35.1 °F 30.1 °F 10.9 °F 37% 30.23 in 10.0 mi SE 5.8 mph - N/A   Clear
1:53 AM 32.0 °F - 9.0 °F 38% 30.23 in 10.0 mi Calm Calm - N/A   Clear
2:53 AM 33.1 °F - 12.0 °F 42% 30.23 in 10.0 mi Calm Calm - N/A   Clear
3:53 AM 32.0 °F - 10.9 °F 42% 30.22 in 10.0 mi Calm Calm - N/A   Clear
4:53 AM 30.0 °F - 9.0 °F 41% 30.23 in 10.0 mi Calm Calm - N/A   Clear
5:53 AM 30.9 °F - 12.0 °F 46% 30.22 in 10.0 mi Calm Calm - N/A   Clear
6:53 AM 30.9 °F - 12.0 °F 46% 30.25 in 10.0 mi Calm Calm - N/A   Clear
7:53 AM 32.0 °F - 12.0 °F 44% 30.26 in 10.0 mi Calm Calm - N/A   Clear
8:53 AM 36.0 °F - 14.0 °F 41% 30.27 in 10.0 mi Calm Calm - N/A   Clear
9:53 AM 43.0 °F - 16.0 °F 34% 30.27 in 10.0 mi Calm Calm - N/A   Clear
10:53 AM 50.0 °F - 16.0 °F 26% 30.25 in 10.0 mi North 3.5 mph - N/A   Clear
11:53 AM 55.0 °F - 14.0 °F 20% 30.20 in 10.0 mi Calm Calm - N/A   Clear
12:53 PM 62.1 °F - 14.0 °F 15% 30.17 in 10.0 mi Calm Calm - N/A   Clear
1:53 PM 64.9 °F - 12.9 °F 13% 30.14 in 10.0 mi Calm Calm - N/A   Clear
2:53 PM 69.1 °F - 15.1 °F 13% 30.12 in 10.0 mi Calm Calm - N/A   Clear
3:53 PM 69.1 °F - 16.0 °F 13% 30.12 in 10.0 mi North 3.5 mph - N/A   Clear
4:53 PM 64.0 °F - 25.0 °F 23% 30.12 in 10.0 mi East 10.4 mph - N/A   Clear
5:53 PM 57.0 °F - 25.0 °F 29% 30.12 in 10.0 mi East 8.1 mph - N/A   Clear
6:53 PM 51.1 °F - 23.0 °F 33% 30.14 in 10.0 mi East 4.6 mph - N/A   Clear
7:53 PM 48.9 °F - 21.9 °F 35% 30.15 in 10.0 mi Calm Calm - N/A   Clear
8:53 PM 46.9 °F - 24.1 °F 41% 30.16 in 10.0 mi Calm Calm - N/A   Clear
9:53 PM 46.9 °F - 23.0 °F 39% 30.18 in 10.0 mi Calm Calm - N/A   Clear
10:53 PM 44.1 °F - 23.0 °F 43% 30.18 in 10.0 mi Calm Calm - N/A   Clear
11:53 PM 37.9 °F 35.5 °F 21.9 °F 53% 30.19 in 7.0 mi East 3.5 mph - N/A   Clear